Other Public Products
Issued by NWS Charleston, SC

Home | Current Version | Previous Version | Text Only | Print | Product List | Glossary On
Versions: 1 2 3 4 5 6 7 8 9 10 11 12 13 14 15 16 17 18 19 20 21 22 23 24 25 26 27 28 29 30 31 32 33 34 35 36 37 38 39 40 41 42 43 44 45 46 47 48 49 50
000
FPUS82 KCHS 160927
OPUCHS

TEST...KCHS/KSAV Gateway Observations...TEST
National Weather Service Charleston SC
400 AM EST TUE JAN 16 2018

NOTE: "fair" indicates few or no clouds below 12,000 feet with no
significant weather and/or obstructions to visibility.

SCZ050-WAZ558-NCZ071-TXZ119-213-PAZ071-DCZ001-FLZ074-172-MI076-
NYZ176-178-MAZ016-IL014-TNZ027-NJZ106-GAZ044-MD014-161000-

...Gateway Observations for Charleston International...

CITY           SKY/WX    TMP DP  RH WIND       PRES   REMARKS
Chas Airport   FAIR      27  20  75 N5        30.44F WCI  22
Seattle        LGT RAIN  50  47  89 SW5       30.03R
Charlotte      FAIR      21  16  81 N3        30.43F
Dallas DFW     FLURRIES  25   6  44 N21       30.68R WCI  11
Dallas Love    CLOUDY    24   5  44 N22G31    30.71R WCI   9
Philladelphia  CLOUDY    30  24  78 E9        30.48F WCI  22
Wash National  CLOUDY    31  28  89 SE5       30.46S WCI  26
Baltimore      CLOUDY    28  25  88 E3        30.45F
Miami          FAIR      67  56  67 NE7       30.23R
Detroit        CLOUDY    17  13  84 SW12      30.32F WCI   4
Newark         CLOUDY    25  17  72 N3        30.51S
Laguardia      CLOUDY    25  18  74 E3        30.51S
J F K          CLOUDY    25  22  88 NE8       30.52S WCI  16
Boston Logan   CLOUDY    21  13  71 NW7       30.53R WCI  12
Ft. Lauderdale FAIR      65  55  70 NE10      30.22S
Chicago O`Hare FLURRIES  10   4  76 W10       30.34S WCI  -4
Chicago Midway LGT SNOW   6   2  83 W13       30.37S FOG     WCI -10
Houston Bush   LGT RAIN  45  43  93 N21       30.42R
Houston Hobby  LGT RAIN  52  51  97 N18       30.38R
Nashville      FLURRIES  21  14  74 N12       30.50R WCI   9
Atlanta        FAIR      33  24  69 CALM      30.39F

$$

GAZ044-118-TXZ119-213-NCZ071-DCZ001-MDZ014-506-PAZ021-071-NJZ106-
NYZ176-178-MAZ106-OHZ011-021-055-MIZ076-KYZ091-ILZ014-INZ047-
MNZ060-ONZ431-161000-

...Gateway Observations for Savannah International...

CITY           SKY/WX    TMP DP  RH WIND       PRES   REMARKS
Savannah Arpt  FAIR      30  26  85 N3        30.45R
Atlanta        FAIR      33  24  69 CALM      30.39F
Charlotte      FAIR      21  16  81 N3        30.43F
Dallas DFW     FLURRIES  25   6  44 N21       30.68R WCI  11
Houston Bush   LGT RAIN  45  43  93 N21       30.42R
Wash National  CLOUDY    31  28  89 SE5       30.46S WCI  26
Wash Dulles    CLOUDY    27  25  92 CALM      30.44S
Baltimore      CLOUDY    28  25  88 E3        30.45F
Philadelphia   CLOUDY    30  24  78 E9        30.48F WCI  22
Newark         CLOUDY    25  17  72 N3        30.51S
Laguardia      CLOUDY    25  18  74 E3        30.51S
J F K          CLOUDY    25  22  88 NE8       30.52S WCI  16
Boston         CLOUDY    21  13  71 NW7       30.53R WCI  12
Pittsburg      LGT SNOW  26  24  92 SW5       30.31R FOG     WCI  20
Akron          MOCLDY    22  18  85 SW3       30.31R FOG
Cleveland      FLURRIES  19  16  88 W5        30.35S WCI  12
Cincinnati     FLURRIES  11   6  81 NW9       30.43R WCI  -2
Columbus       CLOUDY    14   9  81 W10       30.41R WCI   1
Detroit        CLOUDY    17  13  84 SW12      30.32F WCI   4
Chicago O`Hare FLURRIES  10   4  76 W10       30.34S WCI  -4
Minneapolis    MOCLDY    -1  -5  82 NW8       30.63R WCI -15
Indianapolis   FAIR       0  -5  79 SW12      30.47R WCI -17
Toronto Canada FLURRIES  18  14  86 N6        30.30S WCI   9

$$




USA.gov is the U.S. government's official web portal to all federal, state and local government web resources and services.